FW9130 Weather Reports


time (UTC)temp
C
wind
direction
speed
KPH
gust
KPH
rain 1hr
cm
rain 24hr
cm
rain mn
cm
humidity
%
barometer
mb
20260504151051 15 291 9.7 11.3 0.00 0.00 0.00 40 1013.9
20260504150548 15 160 3.2 3.2 0.00 0.00 0.00 42 1013.9
20260504141014 12 282 4.8 4.8 0.00 0.00 0.00 44 1014.4
20260504140511 12 265 11.3 14.5 0.00 0.00 0.00 44 1014.3
20260504130435 12 141 1.6 1.6 0.00 0.00 0.00 45 1014.3
20260504110322 7 153 1.6 1.6 0.00 0.00 0.00 56 1014.4
20260504100240 6 132 1.6 1.6 0.00 0.00 0.00 62 1014.4
20260504081633 6 133 1.6 3.2 0.00 0.00 0.00 60 1014.4
20260504081129 6 288 1.6 3.2 0.00 0.00 0.00 60 1014.4
20260504080626 6 174 1.6 1.6 0.00 0.00 0.00 60 1014.5
20260504080122 6 140 1.6 1.6 0.00 0.00 0.00 60 1014.6
20260504050439 6 318 1.6 3.2 0.00 0.00 0.00 58 1014.2
20260504045936 6 158 1.6 1.6 0.00 0.00 0.00 59 1014.0
20260504045432 6 49 1.6 3.2 0.00 0.00 0.00 59 1014.4
20260504044928 6 152 1.6 1.6 0.00 0.00 0.00 59 1014.3
20260504044426 6 0 4.8 4.8 0.00 0.00 0.00 59 1014.0
20260504043923 6 325 1.6 3.2 0.00 0.00 0.00 59 1014.3
20260504043420 6 327 3.2 3.2 0.00 0.00 0.00 59 1014.3
20260504042917 6 314 3.2 3.2 0.00 0.00 0.00 59 1014.0
20260504042414 6 128 1.6 1.6 0.00 0.00 0.00 59 1014.2
20260504041910 6 135 1.6 1.6 0.00 0.00 0.00 59 1014.0
20260504041406 6 139 1.6 1.6 0.00 0.00 0.00 58 1013.9
20260504040902 6 140 0.0 0.0 0.00 0.00 0.00 58 1013.8
20260504040400 6 133 0.0 1.6 0.00 0.00 0.00 58 1013.7
20260504035856 7 126 0.0 1.6 0.00 0.00 0.00 57 1013.8
20260504035354 7 134 1.6 1.6 0.00 0.00 0.00 56 1013.8
20260504034850 7 58 1.6 3.2 0.00 0.00 0.00 56 1013.9
20260504034348 7 113 0.0 1.6 0.00 0.00 0.00 56 1013.8
20260504033844 7 141 1.6 1.6 0.00 0.00 0.00 57 1013.7
20260504033343 7 122 1.6 1.6 0.00 0.00 0.00 56 1013.6
20260504032839 7 68 1.6 1.6 0.00 0.00 0.00 56 1013.6
20260504032336 7 41 3.2 3.2 0.00 0.00 0.00 56 1013.8
20260504031833 7 126 3.2 3.2 0.00 0.00 0.00 55 1013.6
20260504031330 7 331 4.8 4.8 0.00 0.00 0.00 56 1013.6
20260504030826 7 80 1.6 3.2 0.00 0.00 0.00 56 1013.9
20260504030324 7 179 3.2 3.2 0.00 0.00 0.00 55 1013.8
20260504025820 7 306 3.2 4.8 0.00 0.00 0.00 55 1013.9
20260504025317 7 162 1.6 1.6 0.00 0.00 0.00 55 1013.7
20260504024813 7 85 1.6 1.6 0.00 0.00 0.00 55 1013.6
20260504024310 7 144 1.6 1.6 0.00 0.00 0.00 54 1013.7
20260504023807 7 142 1.6 1.6 0.00 0.00 0.00 54 1013.8
20260504023303 7 153 1.6 1.6 0.00 0.00 0.00 55 1013.7
20260504022759 7 161 1.6 1.6 0.00 0.00 0.00 54 1014.0
20260504022256 7 136 1.6 3.2 0.00 0.00 0.00 53 1013.8
20260504021752 7 126 1.6 1.6 0.00 0.00 0.00 54 1014.0
20260504021250 7 116 1.6 1.6 0.00 0.00 0.00 53 1013.8
20260504020747 7 141 1.6 1.6 0.00 0.00 0.00 53 1013.9
20260504020243 7 128 0.0 1.6 0.00 0.00 0.00 53 1013.7
20260504015739 7 114 1.6 1.6 0.00 0.00 0.00 53 1013.9
20260504015236 7 127 0.0 1.6 0.00 0.00 0.00 53 1013.7
20260504014732 7 115 0.0 1.6 0.00 0.00 0.00 53 1013.5
20260504014228 7 103 1.6 1.6 0.00 0.00 0.00 53 1013.6
20260504013726 7 130 0.0 1.6 0.00 0.00 0.00 52 1013.5
20260504013224 8 128 0.0 0.0 0.00 0.00 0.00 52 1013.6
20260504012720 8 34 1.6 1.6 0.00 0.00 0.00 50 1013.5
20260504012218 8 303 1.6 1.6 0.00 0.00 0.00 50 1013.5
20260504011715 8 121 1.6 1.6 0.00 0.00 0.00 50 1013.5
20260504011211 8 126 0.0 1.6 0.00 0.00 0.00 49 1013.5
20260504010708 8 311 3.2 3.2 0.00 0.00 0.00 49 1013.6
20260504010203 8 103 1.6 1.6 0.00 0.00 0.00 49 1013.4
20260504005700 8 328 3.2 3.2 0.00 0.00 0.00 49 1013.3
20260504005157 8 101 1.6 1.6 0.00 0.00 0.00 48 1013.3
20260504004655 8 138 1.6 1.6 0.00 0.00 0.00 49 1013.4
20260504004152 8 128 0.0 0.0 0.00 0.00 0.00 49 1013.2
20260504003648 8 127 0.0 1.6 0.00 0.00 0.00 48 1013.3
20260504003145 8 100 0.0 1.6 0.00 0.00 0.00 49 1013.2
20260504002642 8 102 1.6 1.6 0.00 0.00 0.00 48 1013.4
20260504002139 9 162 1.6 1.6 0.00 0.00 0.00 48 1013.1
20260504001637 9 116 0.0 0.0 0.00 0.00 0.00 47 1013.0
20260504001132 9 57 1.6 3.2 0.00 0.00 0.00 47 1013.0
20260504000630 9 104 0.0 0.0 0.00 0.00 0.00 47 1013.2
20260504000127 10 116 0.0 0.0 0.00 0.00 0.00 47 1013.0
20260503235626 10 87 1.6 1.6 0.00 0.00 0.00 46 1013.0
20260503235122 10 100 0.0 0.0 0.00 0.00 0.00 47 1012.8
20260503234620 10 129 1.6 1.6 0.00 0.00 0.00 45 1012.7
20260503234118 10 21 3.2 3.2 0.00 0.00 0.00 45 1012.7
20260503233615 10 108 0.0 0.0 0.00 0.00 0.00 45 1012.8
20260503233110 10 96 1.6 1.6 0.00 0.00 0.00 44 1012.5
20260503232607 10 158 1.6 1.6 0.00 0.00 0.00 44 1012.7
20260503232105 10 145 0.0 1.6 0.00 0.00 0.00 43 1012.6
20260503231603 10 347 3.2 3.2 0.00 0.00 0.00 43 1012.6
20260503231059 10 107 0.0 0.0 0.00 0.00 0.00 46 1012.5
20260503230555 10 98 0.0 0.0 0.00 0.00 0.00 44 1012.5
20260503230053 10 119 0.0 0.0 0.00 0.00 0.00 43 1012.6
20260503225550 10 97 0.0 1.6 0.00 0.00 0.00 43 1012.5
20260503225045 11 90 1.6 1.6 0.00 0.00 0.00 42 1012.4
20260503224543 11 295 3.2 3.2 0.00 0.00 0.00 42 1012.5
20260503224040 11 68 4.8 8.0 0.00 0.00 0.00 41 1012.5
20260503223538 11 46 1.6 1.6 0.00 0.00 0.00 41 1012.3
20260503223033 11 105 0.0 0.0 0.00 0.00 0.00 42 1012.6
20260503222532 11 58 3.2 3.2 0.00 0.00 0.00 40 1012.5
20260503222030 11 62 1.6 1.6 0.00 0.00 0.00 41 1012.5
20260503221528 11 48 3.2 3.2 0.00 0.00 0.00 41 1012.5
20260503221025 11 115 0.0 1.6 0.00 0.00 0.00 40 1012.4
20260503220521 11 298 3.2 3.2 0.00 0.00 0.00 40 1012.5
20260503220017 11 128 1.6 1.6 0.00 0.00 0.00 41 1012.5
20260503215515 11 61 1.6 3.2 0.00 0.00 0.00 40 1012.4
20260503215012 11 225 3.2 3.2 0.00 0.00 0.00 41 1012.0
20260503214510 11 86 1.6 3.2 0.00 0.00 0.00 40 1012.3
20260503214006 11 68 3.2 4.8 0.00 0.00 0.00 39 1012.0
20260503213505 11 3 3.2 4.8 0.00 0.00 0.00 39 1012.3
20260503213001 11 92 1.6 1.6 0.00 0.00 0.00 39 1011.9
20260503212459 12 113 3.2 3.2 0.00 0.00 0.00 38 1012.0
20260503211956 11 161 3.2 4.8 0.00 0.00 0.00 39 1012.0
20260503211453 11 43 3.2 3.2 0.00 0.00 0.00 38 1012.0
20260503210948 12 2 3.2 3.2 0.00 0.00 0.00 37 1011.9
20260503210445 12 59 3.2 3.2 0.00 0.00 0.00 37 1011.6
20260503205940 12 63 4.8 4.8 0.00 0.00 0.00 36 1011.9
20260503205437 12 48 3.2 8.0 0.00 0.00 0.00 38 1011.8
20260503204933 12 54 3.2 3.2 0.00 0.00 0.00 36 1011.7
20260503204431 12 21 3.2 3.2 0.00 0.00 0.00 35 1011.7
20260503203927 12 180 8.0 9.7 0.00 0.00 0.00 34 1012.0
20260503203425 12 349 4.8 4.8 0.00 0.00 0.00 34 1011.8
20260503202921 12 86 3.2 3.2 0.00 0.00 0.00 35 1011.7
20260503202420 11 356 4.8 8.0 0.00 0.00 0.00 37 1011.7
20260503201918 11 42 1.6 1.6 0.00 0.00 0.00 35 1011.7
20260503201415 11 337 3.2 4.8 0.00 0.00 0.00 37 1012.0
20260503200912 11 300 4.8 8.0 0.00 0.00 0.00 37 1012.1
20260503200408 10 72 1.6 3.2 0.00 0.00 0.00 39 1012.0
20260503195905 11 65 3.2 3.2 0.00 0.00 0.00 38 1012.3
20260503195402 11 116 3.2 4.8 0.00 0.00 0.00 39 1012.4
20260503194859 11 60 1.6 1.6 0.00 0.00 0.00 38 1012.1
20260503194355 11 56 1.6 1.6 0.00 0.00 0.00 39 1012.3
20260503193851 11 37 1.6 3.2 0.00 0.00 0.00 36 1012.5
20260503193347 10 89 4.8 9.7 0.00 0.00 0.00 38 1012.5
20260503192843 11 72 3.2 4.8 0.00 0.00 0.00 38 1012.5
20260503192339 10 14 3.2 4.8 0.00 0.00 0.00 38 1012.5
20260503191835 10 307 4.8 8.0 0.00 0.00 0.00 39 1012.6
20260503191332 11 54 4.8 4.8 0.00 0.00 0.00 37 1012.7
20260503190829 11 324 4.8 4.8 0.00 0.00 0.00 38 1012.7
20260503190326 11 124 3.2 3.2 0.00 0.00 0.00 39 1012.5
20260503185823 10 115 0.0 1.6 0.00 0.00 0.00 40 1012.6
20260503185319 10 70 4.8 4.8 0.00 0.00 0.00 40 1012.9
20260503184814 11 13 4.8 4.8 0.00 0.00 0.00 38 1012.9
20260503184310 11 70 3.2 4.8 0.00 0.00 0.00 39 1012.6
20260503183806 10 318 4.8 8.0 0.00 0.00 0.00 38 1013.0
20260503183304 11 111 4.8 8.0 0.00 0.00 0.00 39 1012.9
20260503182801 10 52 4.8 4.8 0.00 0.00 0.00 40 1013.1
20260503182300 10 95 1.6 1.6 0.00 0.00 0.00 40 1012.9
20260503181756 11 321 4.8 9.7 0.00 0.00 0.00 40 1013.0
20260503181253 10 20 4.8 8.0 0.00 0.00 0.00 41 1013.0
20260503180750 10 45 4.8 4.8 0.00 0.00 0.00 39 1013.2
20260503180248 10 313 6.4 8.0 0.00 0.00 0.00 39 1013.0
20260503175744 10 53 4.8 9.7 0.00 0.00 0.00 39 1013.0
20260503175242 10 305 3.2 4.8 0.00 0.00 0.00 41 1012.8
20260503174738 10 34 1.6 4.8 0.00 0.00 0.00 42 1013.0
20260503174236 10 355 3.2 3.2 0.00 0.00 0.00 39 1013.1
20260503173736 10 24 4.8 8.0 0.00 0.00 0.00 39 1013.0
20260503173232 9 306 4.8 11.3 0.00 0.00 0.00 43 1013.0
20260503172730 10 273 8.0 9.7 0.00 0.00 0.00 40 1013.3
20260503172227 9 10 4.8 8.0 0.00 0.00 0.00 42 1013.1
20260503171723 10 275 6.4 8.0 0.00 0.00 0.00 41 1013.2
20260503171220 9 47 8.0 11.3 0.00 0.00 0.00 41 1013.2
20260503170717 8 315 4.8 8.0 0.00 0.00 0.00 43 1013.4
20260503170214 9 143 3.2 4.8 0.00 0.00 0.00 40 1013.4
20260503160136 8 330 3.2 4.8 0.00 0.00 0.00 43 1013.9